Terminal Aerodrome Forecast
Issued by NWS Columbia, SC

Home | Current Version | Previous Version | Text Only | Print | Product List | Glossary On
Versions: 1 2 3 4 5 6 7 8 9 10 11 12 13 14 15 16 17 18 19 20 21 22 23 24 25 26 27 28 29 30 31 32 33 34 35 36 37 38 39 40 41 42 43 44 45 46 47
000
FTAK31 PAJN 201700
TAFAGS
TAF
PAGS 201726Z 2018/2118 VRB03KT P6SM SKC
     FM202000 23005KT P6SM SCT100
     FM210300 VRB03KT P6SM FEW100
     FM211000 00000KT P6SM VCFG SKC
     FM211300 00000KT 6SM BCFG SCT002
     FM211700 00000KT P6SM SKC
      AMD NOT SKED=

USA.gov is the U.S. government's official web portal to all federal, state and local government web resources and services.